TimeMST,TemperatureF,Dew PointF,Humidity,Sea Level PressureIn,VisibilityMPH,Wind Direction,Wind SpeedMPH,Gust SpeedMPH,PrecipitationIn,Events,Conditions,WindDirDegrees,DateUTC
12:15 AM,35.2,11.8,38,30.32,10.0,NW,5.8,-,N/A,,Clear,310,2012-11-04 06:15:00
12:35 AM,34.7,11.1,38,30.32,10.0,NW,6.9,-,N/A,,Clear,310,2012-11-04 06:35:00
12:55 AM,32.0,10.2,40,30.33,10.0,NW,5.8,-,N/A,,Clear,310,2012-11-04 06:55:00
1:15 AM,34.3,11.3,39,30.33,10.0,NW,6.9,-,N/A,,Clear,320,2012-11-04 07:15:00
1:35 AM,33.8,11.1,39,30.33,10.0,WNW,4.6,-,N/A,,Clear,300,2012-11-04 07:35:00
1:55 AM,30.7,10.8,43,30.33,10.0,NW,5.8,-,N/A,,Clear,310,2012-11-04 07:55:00
1:15 AM,31.1,10.9,43,30.33,10.0,WNW,5.8,-,N/A,,Clear,300,2012-11-04 08:15:00
1:35 AM,32.0,10.9,42,30.33,10.0,NW,8.1,-,N/A,,Clear,320,2012-11-04 08:35:00
1:55 AM,29.7,10.2,44,30.34,10.0,WNW,8.1,-,N/A,,Clear,300,2012-11-04 08:55:00
2:15 AM,32.0,10.4,41,30.34,10.0,WNW,6.9,-,N/A,,Clear,300,2012-11-04 09:15:00
2:35 AM,29.5,9.5,43,30.34,10.0,NW,5.8,-,N/A,,Clear,310,2012-11-04 09:35:00
2:55 AM,29.1,9.5,44,30.34,10.0,NW,6.9,-,N/A,,Clear,320,2012-11-04 09:55:00
3:15 AM,27.9,9.5,46,30.34,10.0,NW,6.9,-,N/A,,Clear,320,2012-11-04 10:15:00
3:35 AM,27.0,9.1,47,30.34,10.0,NW,8.1,-,N/A,,Clear,310,2012-11-04 10:35:00
3:55 AM,27.5,8.6,45,30.34,10.0,NW,8.1,-,N/A,,Clear,310,2012-11-04 10:55:00
4:15 AM,26.4,8.1,46,30.34,10.0,NW,6.9,-,N/A,,Clear,310,2012-11-04 11:15:00
4:35 AM,27.3,8.6,45,30.34,10.0,NW,8.1,-,N/A,,Clear,310,2012-11-04 11:35:00
4:55 AM,26.4,8.2,46,30.35,10.0,WNW,6.9,-,N/A,,Clear,300,2012-11-04 11:55:00
5:15 AM,26.2,8.4,47,30.36,10.0,NW,8.1,-,N/A,,Clear,310,2012-11-04 12:15:00
5:35 AM,25.5,8.2,48,30.36,10.0,WNW,6.9,-,N/A,,Clear,300,2012-11-04 12:35:00
5:55 AM,24.8,8.2,49,30.36,10.0,NNW,6.9,-,N/A,,Clear,330,2012-11-04 12:55:00
6:15 AM,23.0,7.5,52,30.36,10.0,NW,8.1,-,N/A,,Clear,320,2012-11-04 13:15:00
6:35 AM,23.5,7.3,50,30.36,10.0,NW,9.2,-,N/A,,Clear,310,2012-11-04 13:35:00
6:55 AM,25.7,8.2,48,30.37,10.0,WNW,8.1,-,N/A,,Clear,300,2012-11-04 13:55:00
7:15 AM,26.6,7.5,45,30.38,10.0,NW,9.2,-,N/A,,Clear,320,2012-11-04 14:15:00
7:35 AM,28.6,7.9,42,30.38,10.0,NW,6.9,-,N/A,,Clear,310,2012-11-04 14:35:00
7:55 AM,32.0,8.6,38,30.40,10.0,NW,6.9,-,N/A,,Clear,320,2012-11-04 14:55:00
8:15 AM,35.8,9.5,34,30.40,10.0,NNW,8.1,-,N/A,,Clear,330,2012-11-04 15:15:00
8:35 AM,38.3,10.2,31,30.40,10.0,NNW,8.1,-,N/A,,Clear,330,2012-11-04 15:35:00
8:55 AM,41.4,11.1,29,30.40,10.0,NNW,6.9,-,N/A,,Clear,340,2012-11-04 15:55:00
9:15 AM,44.4,11.5,26,30.40,10.0,NNW,6.9,-,N/A,,Clear,330,2012-11-04 16:15:00
9:35 AM,47.3,12.4,25,30.40,10.0,NW,5.8,-,N/A,,Clear,320,2012-11-04 16:35:00
9:55 AM,50.0,12.6,22,30.40,10.0,NNW,5.8,-,N/A,,Clear,330,2012-11-04 16:55:00
10:15 AM,52.7,12.9,21,30.39,10.0,NNW,3.5,-,N/A,,Clear,340,2012-11-04 17:15:00
10:35 AM,56.3,13.1,18,30.38,10.0,North,4.6,-,N/A,,Clear,360,2012-11-04 17:35:00
10:55 AM,59.9,13.1,16,30.38,10.0,North,6.9,-,N/A,,Clear,10,2012-11-04 17:55:00
11:15 AM,61.9,13.1,15,30.37,10.0,North,6.9,-,N/A,,Clear,360,2012-11-04 18:15:00
11:35 AM,62.4,12.6,14,30.36,10.0,Calm,Calm,-,N/A,,Clear,0,2012-11-04 18:35:00
11:55 AM,64.4,13.1,14,30.35,10.0,ENE,5.8,-,N/A,,Clear,70,2012-11-04 18:55:00
12:15 PM,66.2,12.9,13,30.34,10.0,NNW,11.5,17.3,N/A,,Clear,340,2012-11-04 19:15:00
12:35 PM,67.5,12.7,12,30.32,10.0,NNW,15.0,23.0,N/A,,Clear,340,2012-11-04 19:35:00
12:55 PM,67.5,12.9,12,30.32,10.0,North,13.8,18.4,N/A,,Clear,10,2012-11-04 19:55:00
1:15 PM,68.0,13.1,12,30.31,10.0,North,11.5,19.6,N/A,,Clear,10,2012-11-04 20:15:00
1:35 PM,68.7,13.5,12,30.31,10.0,North,11.5,-,N/A,,Clear,360,2012-11-04 20:35:00
1:55 PM,68.5,12.6,12,30.31,10.0,NNW,11.5,17.3,N/A,,Clear,330,2012-11-04 20:55:00
2:15 PM,69.1,11.3,11,30.30,10.0,NNW,13.8,17.3,N/A,,Clear,340,2012-11-04 21:15:00
2:35 PM,68.0,11.1,11,30.31,10.0,North,12.7,21.9,N/A,,Clear,360,2012-11-04 21:35:00
2:55 PM,67.1,10.9,11,30.30,10.0,North,15.0,21.9,N/A,,Clear,350,2012-11-04 21:55:00
3:15 PM,65.3,10.0,12,30.31,10.0,North,15.0,20.7,N/A,,Clear,10,2012-11-04 22:15:00
3:35 PM,64.9,8.6,11,30.31,10.0,NNE,13.8,-,N/A,,Clear,20,2012-11-04 22:35:00
3:55 PM,66.2,9.3,11,30.31,10.0,North,12.7,18.4,N/A,,Clear,10,2012-11-04 22:55:00
4:15 PM,65.5,9.1,11,30.31,10.0,North,12.7,16.1,N/A,,Clear,360,2012-11-04 23:15:00
4:35 PM,64.8,7.3,10,30.30,10.0,North,9.2,-,N/A,,Clear,360,2012-11-04 23:35:00
4:55 PM,63.0,7.3,11,30.31,10.0,North,8.1,-,N/A,,Clear,360,2012-11-04 23:55:00
5:15 PM,59.9,8.6,13,30.31,10.0,North,8.1,-,N/A,,Clear,360,2012-11-05 00:15:00
5:35 PM,53.6,7.5,16,30.32,10.0,NNW,8.1,-,N/A,,Clear,330,2012-11-05 00:35:00
5:55 PM,53.4,8.6,17,30.32,10.0,NW,9.2,-,N/A,,Clear,310,2012-11-05 00:55:00
6:15 PM,51.4,10.4,19,30.34,10.0,NW,6.9,-,N/A,,Clear,320,2012-11-05 01:15:00
6:35 PM,49.6,10.9,21,30.34,10.0,NNW,4.6,-,N/A,,Clear,340,2012-11-05 01:35:00
6:55 PM,47.8,11.8,23,30.35,10.0,Calm,Calm,-,N/A,,Clear,0,2012-11-05 01:55:00
7:15 PM,43.2,10.6,27,30.36,10.0,Calm,Calm,-,N/A,,Clear,0,2012-11-05 02:15:00
7:35 PM,40.3,9.1,28,30.36,10.0,NNW,3.5,-,N/A,,Clear,340,2012-11-05 02:35:00
7:55 PM,40.3,9.7,28,30.35,10.0,NW,10.4,-,N/A,,Clear,320,2012-11-05 02:55:00
8:15 PM,41.7,10.8,28,30.35,10.0,SE,4.6,-,N/A,,Clear,130,2012-11-05 03:15:00
8:35 PM,40.1,10.8,30,30.37,10.0,Calm,Calm,-,N/A,,Clear,0,2012-11-05 03:35:00
8:55 PM,36.1,10.0,34,30.37,10.0,Calm,Calm,-,N/A,,Clear,0,2012-11-05 03:55:00
9:15 PM,32.9,8.8,37,30.38,10.0,Calm,Calm,-,N/A,,Clear,0,2012-11-05 04:15:00
9:35 PM,34.9,9.5,35,30.38,10.0,Calm,Calm,-,N/A,,Clear,0,2012-11-05 04:35:00
9:55 PM,34.3,10.2,37,30.38,10.0,Calm,Calm,-,N/A,,Clear,0,2012-11-05 04:55:00
10:15 PM,37.6,10.2,32,30.38,10.0,Calm,Calm,-,N/A,,Clear,0,2012-11-05 05:15:00
10:35 PM,41.2,11.3,30,30.37,10.0,Calm,Calm,-,N/A,,Clear,0,2012-11-05 05:35:00
10:55 PM,36.0,8.8,32,30.37,10.0,NNW,3.5,-,N/A,,Clear,330,2012-11-05 05:55:00